RPC2929 RPVM-RPVV

Flight info

Callsign RPC2929
Flight time 1h 31m
Altitude 8500
Route VFR
Aircraft C208/L-SDFGR/C

Departure

Time 2026-04-25 06:02
Airport Mactan Cebu International Airport (RPVM)

Arrival

Time 2026-04-25 07:33
Airport Francisco B. Reyes (Busuanga) Airport (RPVV)
Time Latitude Longitude Altitude Speed Heading
2026-04-25 05:44 10.30147 123.97658 37 ft 0 kts 41°
2026-04-25 05:56 10.30162 123.97646 37 ft 8 kts 269°
2026-04-25 05:56 10.30118 123.97567 36 ft 16 kts 227°
2026-04-25 05:56 10.30025 123.97473 36 ft 15 kts 223°
2026-04-25 05:56 10.30000 123.97441 36 ft 0 kts 46°
2026-04-25 05:59 10.30002 123.97443 36 ft 3 kts 46°
2026-04-25 05:59 10.30038 123.97468 36 ft 10 kts
2026-04-25 05:59 10.30111 123.97403 34 ft 18 kts 315°
2026-04-25 05:59 10.30203 123.97309 34 ft 15 kts 313°
2026-04-25 06:00 10.30279 123.97230 36 ft 9 kts 315°
2026-04-25 06:00 10.30319 123.97239 37 ft 0 kts 47°
2026-04-25 06:00 10.30403 123.97325 38 ft 41 kts 45°
2026-04-25 06:01 10.30708 123.97632 66 ft 77 kts 43°
2026-04-25 06:01 10.31145 123.98065 158 ft 98 kts 43°
2026-04-25 06:01 10.31664 123.98593 316 ft 112 kts 44°
2026-04-25 06:01 10.32243 123.99163 492 ft 119 kts 40°
2026-04-25 06:02 10.32933 123.99603 760 ft 120 kts 27°
2026-04-25 06:02 10.33748 123.99878 911 ft 126 kts 19°
2026-04-25 06:02 10.34627 124.00015 997 ft 131 kts 13°
2026-04-25 06:02 10.35553 124.00174 1077 ft 139 kts 14°
2026-04-25 06:03 10.36504 124.00378 1175 ft 140 kts 15°
2026-04-25 06:03 10.37449 124.00546 1335 ft 137 kts 14°
2026-04-25 06:03 10.38397 124.00704 1468 ft 141 kts 13°
2026-04-25 06:03 10.39400 124.00850 1519 ft 147 kts 13°
2026-04-25 06:04 10.40415 124.01006 1511 ft 147 kts 14°
2026-04-25 06:04 10.41423 124.01175 1526 ft 147 kts 15°
2026-04-25 06:04 10.42428 124.01401 1493 ft 148 kts 18°
2026-04-25 06:04 10.43430 124.01659 1447 ft 149 kts 19°
2026-04-25 06:05 10.44429 124.01945 1511 ft 148 kts 18°
2026-04-25 06:05 10.45410 124.02199 1652 ft 144 kts 17°
2026-04-25 06:05 10.46391 124.02410 1725 ft 144 kts 18°
2026-04-25 06:05 10.47373 124.02609 1803 ft 143 kts 16°
2026-04-25 06:06 10.48352 124.02772 1921 ft 141 kts 12°
2026-04-25 06:06 10.49353 124.02886 1989 ft 148 kts
2026-04-25 06:06 10.50391 124.02936 2138 ft 150 kts
2026-04-25 06:06 10.51440 124.02930 2287 ft 151 kts
2026-04-25 06:07 10.52474 124.02872 2447 ft 150 kts
2026-04-25 06:07 10.53528 124.02781 2557 ft 155 kts 360°
2026-04-25 06:07 10.54597 124.02676 2737 ft 153 kts 359°
2026-04-25 06:07 10.55648 124.02552 2922 ft 151 kts 358°
2026-04-25 06:08 10.56691 124.02421 3107 ft 151 kts 358°
2026-04-25 06:08 10.57730 124.02281 3296 ft 151 kts 358°
2026-04-25 06:08 10.58770 124.02100 3472 ft 153 kts 349°
2026-04-25 06:08 10.59744 124.01643 3671 ft 155 kts 336°
2026-04-25 06:09 10.60665 124.01063 3863 ft 156 kts 330°
2026-04-25 06:09 10.61414 124.00269 4037 ft 156 kts 301°
2026-04-25 06:09 10.61858 123.99275 4229 ft 154 kts 299°
2026-04-25 06:09 10.62340 123.98290 4435 ft 158 kts 301°
2026-04-25 06:10 10.62845 123.97294 4626 ft 159 kts 302°
2026-04-25 06:10 10.63351 123.96299 4817 ft 158 kts 303°
2026-04-25 06:10 10.63853 123.95316 5013 ft 160 kts 301°
2026-04-25 06:10 10.64372 123.94301 5202 ft 163 kts 300°
2026-04-25 06:11 10.64896 123.93273 5388 ft 163 kts 300°
2026-04-25 06:11 10.65404 123.92268 5584 ft 158 kts 300°
2026-04-25 06:11 10.65917 123.91271 5779 ft 160 kts 300°
2026-04-25 06:11 10.66432 123.90255 5974 ft 163 kts 300°
2026-04-25 06:12 10.66955 123.89235 6160 ft 161 kts 300°
2026-04-25 06:12 10.67465 123.88234 6356 ft 159 kts 299°
2026-04-25 06:12 10.67971 123.87237 6534 ft 158 kts 300°
2026-04-25 06:12 10.68477 123.86252 6718 ft 156 kts 300°
2026-04-25 06:13 10.68977 123.85272 6902 ft 156 kts 300°
2026-04-25 06:13 10.69477 123.84283 7070 ft 159 kts 300°
2026-04-25 06:13 10.69987 123.83283 7228 ft 160 kts 300°
2026-04-25 06:14 10.71014 123.81273 7564 ft 163 kts 300°
2026-04-25 06:14 10.71543 123.80240 7685 ft 166 kts 300°
2026-04-25 06:14 10.72081 123.79186 7809 ft 169 kts 300°
2026-04-25 06:14 10.72623 123.78123 7933 ft 170 kts 300°
2026-04-25 06:15 10.73170 123.77051 8056 ft 171 kts 300°
2026-04-25 06:15 10.73720 123.75971 8178 ft 172 kts 300°
2026-04-25 06:15 10.74271 123.74888 8301 ft 172 kts 300°
2026-04-25 06:15 10.74820 123.73811 8421 ft 170 kts 300°
2026-04-25 06:16 10.75369 123.72731 8481 ft 175 kts 300°
2026-04-25 06:16 10.75944 123.71611 8488 ft 181 kts 300°
2026-04-25 06:16 10.76528 123.70463 8488 ft 184 kts 300°
2026-04-25 06:16 10.77120 123.69299 8499 ft 185 kts 300°
2026-04-25 06:17 10.77713 123.68134 8500 ft 186 kts 300°
2026-04-25 06:17 10.78312 123.66959 8502 ft 187 kts 300°
2026-04-25 06:17 10.78911 123.65780 8503 ft 188 kts 299°
2026-04-25 06:17 10.79515 123.64594 8505 ft 189 kts 299°
2026-04-25 06:18 10.80116 123.63411 8504 ft 188 kts 300°
2026-04-25 06:18 10.80714 123.62234 8502 ft 187 kts 300°
2026-04-25 06:18 10.81313 123.61060 8503 ft 187 kts 299°
2026-04-25 06:18 10.81903 123.59899 8502 ft 187 kts 300°
2026-04-25 06:19 10.82503 123.58719 8501 ft 187 kts 299°
2026-04-25 06:19 10.83101 123.57544 8501 ft 187 kts 299°
2026-04-25 06:19 10.83697 123.56372 8502 ft 186 kts 299°
2026-04-25 06:19 10.84294 123.55197 8501 ft 187 kts 299°
2026-04-25 06:20 10.84891 123.54023 8497 ft 187 kts 299°
2026-04-25 06:20 10.85487 123.52851 8498 ft 187 kts 299°
2026-04-25 06:20 10.86083 123.51676 8498 ft 187 kts 299°
2026-04-25 06:20 10.86681 123.50501 8497 ft 187 kts 299°
2026-04-25 06:21 10.87277 123.49327 8499 ft 186 kts 299°
2026-04-25 06:21 10.87871 123.48160 8499 ft 185 kts 299°
2026-04-25 06:21 10.88463 123.46993 8496 ft 186 kts 299°
2026-04-25 06:21 10.89057 123.45824 8496 ft 186 kts 300°
2026-04-25 06:22 10.89653 123.44654 8494 ft 186 kts 299°
2026-04-25 06:22 10.90247 123.43481 8495 ft 187 kts 299°
2026-04-25 06:22 10.90842 123.42310 8495 ft 186 kts 299°
2026-04-25 06:22 10.91435 123.41140 8494 ft 186 kts 299°
2026-04-25 06:23 10.92030 123.39970 8496 ft 186 kts 299°
2026-04-25 06:23 10.92625 123.38799 8497 ft 186 kts 299°
2026-04-25 06:23 10.93219 123.37628 8496 ft 186 kts 299°
2026-04-25 06:23 10.93812 123.36460 8493 ft 186 kts 299°
2026-04-25 06:24 10.94404 123.35293 8492 ft 186 kts 299°
2026-04-25 06:24 10.94998 123.34120 8492 ft 187 kts 299°
2026-04-25 06:24 10.95595 123.32946 8491 ft 187 kts 299°
2026-04-25 06:24 10.96090 123.31725 8489 ft 186 kts 290°
2026-04-25 06:25 10.96513 123.30481 8490 ft 186 kts 291°
2026-04-25 06:25 10.96951 123.29240 8492 ft 187 kts 291°
2026-04-25 06:25 10.97389 123.27997 8492 ft 187 kts 291°
2026-04-25 06:25 10.97826 123.26748 8487 ft 187 kts 291°
2026-04-25 06:26 10.98262 123.25501 8492 ft 187 kts 291°
2026-04-25 06:26 10.98697 123.24251 8491 ft 188 kts 291°
2026-04-25 06:26 10.99134 123.22997 8491 ft 188 kts 291°
2026-04-25 06:26 10.99575 123.21745 8491 ft 188 kts 291°
2026-04-25 06:27 11.00010 123.20489 8493 ft 188 kts 291°
2026-04-25 06:27 11.00447 123.19235 8492 ft 188 kts 291°
2026-04-25 06:27 11.00885 123.17981 8491 ft 188 kts 291°
2026-04-25 06:27 11.01324 123.16723 8492 ft 189 kts 291°
2026-04-25 06:28 11.01760 123.15474 8480 ft 190 kts 291°
2026-04-25 06:28 11.02202 123.14205 8479 ft 190 kts 292°
2026-04-25 06:28 11.02645 123.12930 8476 ft 192 kts 292°
2026-04-25 06:28 11.03095 123.11643 8476 ft 194 kts 292°
2026-04-25 06:29 11.03550 123.10347 8478 ft 193 kts 291°
2026-04-25 06:29 11.03995 123.09061 8479 ft 192 kts 292°
2026-04-25 06:29 11.04441 123.07777 8479 ft 192 kts 292°
2026-04-25 06:29 11.04890 123.06501 8483 ft 191 kts 291°
2026-04-25 06:30 11.05328 123.05232 8484 ft 189 kts 291°
2026-04-25 06:30 11.05767 123.03968 8478 ft 190 kts 292°
2026-04-25 06:30 11.06210 123.02699 8475 ft 191 kts 292°
2026-04-25 06:30 11.06656 123.01429 8478 ft 190 kts 291°
2026-04-25 06:31 11.07096 123.00158 8480 ft 190 kts 291°
2026-04-25 06:31 11.07544 122.98895 8479 ft 189 kts 295°
2026-04-25 06:31 11.08209 122.97759 8483 ft 187 kts 306°
2026-04-25 06:31 11.08920 122.96646 8483 ft 188 kts 305°
2026-04-25 06:32 11.09618 122.95521 8483 ft 188 kts 304°
2026-04-25 06:32 11.10318 122.94391 8481 ft 189 kts 304°
2026-04-25 06:32 11.11016 122.93265 8482 ft 188 kts 304°
2026-04-25 06:32 11.11706 122.92155 8480 ft 187 kts 305°
2026-04-25 06:33 11.12398 122.91036 8481 ft 186 kts 305°
2026-04-25 06:33 11.13089 122.89928 8481 ft 185 kts 305°
2026-04-25 06:33 11.13777 122.88819 8482 ft 186 kts 304°
2026-04-25 06:33 11.14472 122.87697 8478 ft 187 kts 305°
2026-04-25 06:34 11.15171 122.86574 8485 ft 189 kts 305°
2026-04-25 06:34 11.15876 122.85442 8485 ft 189 kts 304°
2026-04-25 06:34 11.16577 122.84312 8484 ft 189 kts 306°
2026-04-25 06:34 11.17278 122.83179 8491 ft 189 kts 305°
2026-04-25 06:35 11.17977 122.82044 8490 ft 189 kts 305°
2026-04-25 06:35 11.18683 122.80909 8491 ft 190 kts 306°
2026-04-25 06:35 11.19391 122.79775 8492 ft 189 kts 305°
2026-04-25 06:35 11.20094 122.78640 8492 ft 190 kts 305°
2026-04-25 06:36 11.20799 122.77501 8491 ft 190 kts 306°
2026-04-25 06:36 11.21507 122.76362 8489 ft 190 kts 306°
2026-04-25 06:36 11.22211 122.75223 8492 ft 190 kts 305°
2026-04-25 06:36 11.22917 122.74083 8490 ft 190 kts 306°
2026-04-25 06:37 11.23624 122.72946 8495 ft 190 kts 304°
2026-04-25 06:37 11.24328 122.71811 8504 ft 189 kts 304°
2026-04-25 06:37 11.25030 122.70678 8495 ft 188 kts 304°
2026-04-25 06:37 11.25723 122.69557 8489 ft 186 kts 304°
2026-04-25 06:38 11.26347 122.68410 8483 ft 186 kts 291°
2026-04-25 06:38 11.26710 122.67162 8487 ft 186 kts 287°
2026-04-25 06:38 11.27078 122.65895 8487 ft 187 kts 288°
2026-04-25 06:38 11.27459 122.64627 8485 ft 187 kts 289°
2026-04-25 06:39 11.27842 122.63359 8485 ft 188 kts 289°
2026-04-25 06:39 11.28226 122.62086 8491 ft 189 kts 289°
2026-04-25 06:39 11.28610 122.60808 8494 ft 188 kts 288°
2026-04-25 06:39 11.28990 122.59541 8494 ft 188 kts 289°
2026-04-25 06:40 11.29250 122.58676 8499 ft 189 kts 289°
2026-04-25 06:40 11.29636 122.57395 8500 ft 189 kts 288°
2026-04-25 06:40 11.30016 122.56131 8503 ft 189 kts 288°
2026-04-25 06:40 11.30400 122.54848 8509 ft 191 kts 289°
2026-04-25 06:41 11.30789 122.53556 8504 ft 190 kts 288°
2026-04-25 06:41 11.31174 122.52272 8505 ft 189 kts 288°
2026-04-25 06:41 11.31560 122.50985 8509 ft 190 kts 288°
2026-04-25 06:41 11.31946 122.49701 8516 ft 189 kts 288°
2026-04-25 06:42 11.32330 122.48420 8517 ft 189 kts 288°
2026-04-25 06:42 11.32715 122.47133 8515 ft 190 kts 288°
2026-04-25 06:42 11.33103 122.45842 8515 ft 191 kts 288°
2026-04-25 06:42 11.33491 122.44547 8515 ft 192 kts 288°
2026-04-25 06:43 11.33881 122.43246 8514 ft 192 kts 288°
2026-04-25 06:43 11.34273 122.41942 8516 ft 193 kts 288°
2026-04-25 06:43 11.34667 122.40626 8517 ft 194 kts 288°
2026-04-25 06:43 11.35061 122.39310 8520 ft 194 kts 288°
2026-04-25 06:44 11.35454 122.37997 8523 ft 193 kts 288°
2026-04-25 06:44 11.35847 122.36689 8522 ft 192 kts 288°
2026-04-25 06:44 11.36234 122.35391 8523 ft 192 kts 288°
2026-04-25 06:44 11.36624 122.34090 8521 ft 193 kts 288°
2026-04-25 06:45 11.37015 122.32775 8514 ft 194 kts 288°
2026-04-25 06:45 11.37413 122.31468 8521 ft 192 kts 287°
2026-04-25 06:45 11.37797 122.30182 8513 ft 191 kts 286°
2026-04-25 06:45 11.38183 122.28884 8514 ft 191 kts 287°
2026-04-25 06:46 11.38567 122.27586 8513 ft 192 kts 287°
2026-04-25 06:46 11.38955 122.26282 8507 ft 193 kts 288°
2026-04-25 06:46 11.39350 122.24975 8508 ft 192 kts 288°
2026-04-25 06:46 11.39746 122.23667 8509 ft 194 kts 288°
2026-04-25 06:47 11.40140 122.22344 8504 ft 195 kts 288°
2026-04-25 06:47 11.40530 122.21025 8514 ft 193 kts 287°
2026-04-25 06:47 11.40919 122.19726 8515 ft 191 kts 288°
2026-04-25 06:47 11.41308 122.18432 8514 ft 192 kts 287°
2026-04-25 06:48 11.41698 122.17126 8500 ft 193 kts 287°
2026-04-25 06:48 11.42092 122.15806 8505 ft 196 kts 289°
2026-04-25 06:48 11.42358 122.14923 8500 ft 197 kts 288°
2026-04-25 06:48 11.42626 122.14023 8494 ft 195 kts 287°
2026-04-25 06:49 11.43693 122.10434 8487 ft 188 kts 287°
2026-04-25 06:49 11.44074 122.09159 8488 ft 188 kts 288°
2026-04-25 06:49 11.44456 122.07884 8489 ft 188 kts 288°
2026-04-25 06:50 11.44825 122.06645 8476 ft 187 kts 288°
2026-04-25 06:50 11.45202 122.05381 8476 ft 187 kts 288°
2026-04-25 06:50 11.45581 122.04113 8474 ft 188 kts 288°
2026-04-25 06:50 11.45961 122.02839 8475 ft 188 kts 288°
2026-04-25 06:51 11.46342 122.01562 8477 ft 188 kts 288°
2026-04-25 06:51 11.46722 122.00285 8476 ft 188 kts 288°
2026-04-25 06:51 11.47104 121.99009 8479 ft 188 kts 288°
2026-04-25 06:51 11.47481 121.97737 8479 ft 187 kts 288°
2026-04-25 06:52 11.47860 121.96467 8477 ft 186 kts 288°
2026-04-25 06:52 11.48236 121.95207 8467 ft 185 kts 288°
2026-04-25 06:52 11.48604 121.93966 8464 ft 185 kts 288°
2026-04-25 06:52 11.48978 121.92708 8461 ft 186 kts 288°
2026-04-25 06:53 11.49356 121.91445 8462 ft 186 kts 288°
2026-04-25 06:53 11.49732 121.90179 8464 ft 187 kts 288°
2026-04-25 06:53 11.50110 121.88911 8466 ft 186 kts 288°
2026-04-25 06:53 11.50483 121.87650 8464 ft 186 kts 288°
2026-04-25 06:54 11.50861 121.86384 8462 ft 187 kts 288°
2026-04-25 06:54 11.51240 121.85108 8453 ft 188 kts 288°
2026-04-25 06:54 11.51621 121.83834 8454 ft 188 kts 288°
2026-04-25 06:54 11.52000 121.82555 8454 ft 189 kts 288°
2026-04-25 06:55 11.52380 121.81278 8456 ft 188 kts 288°
2026-04-25 06:55 11.52759 121.80003 8457 ft 188 kts 288°
2026-04-25 06:55 11.53140 121.78717 8457 ft 191 kts 288°
2026-04-25 06:55 11.53526 121.77421 8456 ft 191 kts 288°
2026-04-25 06:56 11.53912 121.76126 8458 ft 190 kts 288°
2026-04-25 06:56 11.54292 121.74844 8461 ft 189 kts 288°
2026-04-25 06:56 11.54671 121.73564 8459 ft 189 kts 288°
2026-04-25 06:56 11.55053 121.72281 8461 ft 189 kts 288°
2026-04-25 06:57 11.55433 121.71006 8464 ft 187 kts 288°
2026-04-25 06:57 11.55808 121.69729 8462 ft 189 kts 288°
2026-04-25 06:57 11.56190 121.68447 8462 ft 189 kts 288°
2026-04-25 06:57 11.56572 121.67164 8460 ft 189 kts 288°
2026-04-25 06:58 11.56952 121.65873 8457 ft 191 kts 288°
2026-04-25 06:58 11.57340 121.64575 8460 ft 191 kts 288°
2026-04-25 06:58 11.57723 121.63278 8463 ft 191 kts 288°
2026-04-25 06:58 11.58109 121.61979 8463 ft 191 kts 288°
2026-04-25 06:59 11.58495 121.60684 8467 ft 190 kts 288°
2026-04-25 06:59 11.58875 121.59398 8470 ft 189 kts 288°
2026-04-25 06:59 11.59249 121.58136 8470 ft 188 kts 288°
2026-04-25 06:59 11.59626 121.56858 8468 ft 188 kts 288°
2026-04-25 07:00 11.60006 121.55584 8465 ft 187 kts 288°
2026-04-25 07:00 11.60380 121.54315 8464 ft 187 kts 288°
2026-04-25 07:00 11.60755 121.53044 8464 ft 187 kts 288°
2026-04-25 07:00 11.61131 121.51776 8467 ft 187 kts 288°
2026-04-25 07:01 11.61505 121.50509 8465 ft 186 kts 288°
2026-04-25 07:01 11.61880 121.49242 8462 ft 187 kts 289°
2026-04-25 07:01 11.62258 121.47971 8462 ft 188 kts 288°
2026-04-25 07:01 11.62637 121.46690 8462 ft 189 kts 288°
2026-04-25 07:02 11.63016 121.45415 8465 ft 187 kts 288°
2026-04-25 07:02 11.63389 121.44144 8462 ft 188 kts 288°
2026-04-25 07:02 11.63766 121.42862 8459 ft 190 kts 289°
2026-04-25 07:02 11.64152 121.41571 8461 ft 190 kts 289°
2026-04-25 07:03 11.64534 121.40281 8462 ft 190 kts 289°
2026-04-25 07:03 11.64916 121.38985 8464 ft 190 kts 288°
2026-04-25 07:03 11.65295 121.37702 8467 ft 188 kts 288°
2026-04-25 07:03 11.65671 121.36426 8467 ft 188 kts 288°
2026-04-25 07:04 11.66047 121.35155 8467 ft 187 kts 288°
2026-04-25 07:04 11.66424 121.33886 8467 ft 187 kts 288°
2026-04-25 07:04 11.66794 121.32614 8463 ft 188 kts 288°
2026-04-25 07:04 11.67176 121.31328 8462 ft 190 kts 289°
2026-04-25 07:05 11.67560 121.30033 8463 ft 192 kts 289°
2026-04-25 07:05 11.67946 121.28728 8464 ft 192 kts 289°
2026-04-25 07:05 11.68331 121.27423 8465 ft 192 kts 289°
2026-04-25 07:05 11.68716 121.26118 8466 ft 192 kts 289°
2026-04-25 07:06 11.69101 121.24814 8467 ft 191 kts 288°
2026-04-25 07:06 11.69482 121.23520 8470 ft 190 kts 288°
2026-04-25 07:06 11.69861 121.22235 8469 ft 189 kts 289°
2026-04-25 07:06 11.70238 121.20949 8466 ft 189 kts 290°
2026-04-25 07:07 11.70620 121.19658 8464 ft 190 kts 290°
2026-04-25 07:07 11.70997 121.18379 8467 ft 191 kts 290°
2026-04-25 07:07 11.71386 121.17064 8468 ft 191 kts 289°
2026-04-25 07:07 11.71768 121.15772 8471 ft 189 kts 288°
2026-04-25 07:08 11.72015 121.14925 8471 ft 188 kts 289°
2026-04-25 07:08 11.72389 121.13649 8470 ft 188 kts 289°
2026-04-25 07:08 11.72893 121.11945 8470 ft 187 kts 288°
2026-04-25 07:08 11.73138 121.11105 8467 ft 187 kts 289°
2026-04-25 07:09 11.73515 121.09827 8465 ft 189 kts 290°
2026-04-25 07:09 11.73895 121.08544 8466 ft 189 kts 289°
2026-04-25 07:09 11.74272 121.07257 8470 ft 189 kts 290°
2026-04-25 07:09 11.74653 121.05967 8472 ft 190 kts 289°
2026-04-25 07:10 11.75036 121.04679 8476 ft 189 kts 289°
2026-04-25 07:10 11.75410 121.03399 8477 ft 188 kts 288°
2026-04-25 07:10 11.75779 121.02114 8474 ft 189 kts 290°
2026-04-25 07:10 11.76162 121.00831 8477 ft 189 kts 289°
2026-04-25 07:11 11.76539 120.99551 8479 ft 188 kts 289°
2026-04-25 07:11 11.76909 120.98293 8479 ft 187 kts 288°
2026-04-25 07:11 11.77283 120.97019 8478 ft 188 kts 288°
2026-04-25 07:11 11.77657 120.95745 8476 ft 187 kts 288°
2026-04-25 07:12 11.78031 120.94476 8472 ft 186 kts 288°
2026-04-25 07:12 11.78774 120.91943 8472 ft 186 kts 288°
2026-04-25 07:12 11.79146 120.90675 8471 ft 186 kts 288°
2026-04-25 07:13 11.79517 120.89411 8472 ft 187 kts 288°
2026-04-25 07:13 11.79890 120.88135 8469 ft 188 kts 289°
2026-04-25 07:13 11.80269 120.86849 8470 ft 189 kts 289°
2026-04-25 07:13 11.80647 120.85564 8472 ft 189 kts 288°
2026-04-25 07:14 11.81024 120.84271 8466 ft 190 kts 289°
2026-04-25 07:14 11.81405 120.82977 8464 ft 190 kts 289°
2026-04-25 07:14 11.81782 120.81692 8467 ft 189 kts 288°
2026-04-25 07:14 11.82154 120.80414 8451 ft 187 kts 289°
2026-04-25 07:15 11.82530 120.79139 8333 ft 188 kts 288°
2026-04-25 07:15 11.82903 120.77860 8211 ft 188 kts 289°
2026-04-25 07:15 11.83279 120.76574 8083 ft 190 kts 289°
2026-04-25 07:15 11.83654 120.75303 7975 ft 189 kts 288°
2026-04-25 07:16 11.84029 120.74019 7847 ft 189 kts 289°
2026-04-25 07:16 11.84405 120.72728 7733 ft 190 kts 290°
2026-04-25 07:16 11.84786 120.71433 7614 ft 191 kts 290°
2026-04-25 07:16 11.85167 120.70131 7492 ft 192 kts 290°
2026-04-25 07:17 11.85550 120.68824 7379 ft 193 kts 290°
2026-04-25 07:17 11.85934 120.67511 7262 ft 193 kts 290°
2026-04-25 07:17 11.86318 120.66200 7144 ft 193 kts 290°
2026-04-25 07:17 11.86702 120.64889 7029 ft 192 kts 290°
2026-04-25 07:18 11.87082 120.63585 6913 ft 191 kts 290°
2026-04-25 07:18 11.87464 120.62285 6797 ft 191 kts 289°
2026-04-25 07:18 11.87838 120.60994 6679 ft 189 kts 290°
2026-04-25 07:18 11.88212 120.59713 6562 ft 188 kts 290°
2026-04-25 07:19 11.88586 120.58439 6447 ft 187 kts 290°
2026-04-25 07:19 11.88957 120.57171 6334 ft 186 kts 289°
2026-04-25 07:19 11.89326 120.55906 6216 ft 186 kts 290°
2026-04-25 07:19 11.89696 120.54640 6093 ft 186 kts 290°
2026-04-25 07:20 11.90065 120.53375 5965 ft 185 kts 290°
2026-04-25 07:20 11.90432 120.52115 5843 ft 185 kts 290°
2026-04-25 07:20 11.90800 120.50860 5724 ft 185 kts 290°
2026-04-25 07:20 11.91167 120.49606 5605 ft 184 kts 290°
2026-04-25 07:21 11.91529 120.48360 5484 ft 186 kts 290°
2026-04-25 07:21 11.91901 120.47090 5365 ft 187 kts 290°
2026-04-25 07:21 11.92271 120.45819 5245 ft 186 kts 289°
2026-04-25 07:21 11.92639 120.44558 5129 ft 185 kts 290°
2026-04-25 07:22 11.93004 120.43302 5008 ft 184 kts 290°
2026-04-25 07:22 11.93372 120.42045 4890 ft 185 kts 290°
2026-04-25 07:22 11.93737 120.40790 4770 ft 184 kts 290°
2026-04-25 07:22 11.94102 120.39536 4647 ft 184 kts 290°
2026-04-25 07:23 11.94467 120.38289 4527 ft 183 kts 289°
2026-04-25 07:23 11.94828 120.37044 4405 ft 183 kts 289°
2026-04-25 07:23 11.95194 120.35791 4282 ft 184 kts 290°
2026-04-25 07:23 11.95558 120.34546 4163 ft 183 kts 289°
2026-04-25 07:24 11.95920 120.33299 4039 ft 183 kts 289°
2026-04-25 07:24 11.96278 120.32061 3916 ft 180 kts 289°
2026-04-25 07:24 11.96632 120.30850 3792 ft 176 kts 290°
2026-04-25 07:24 11.96988 120.29659 3638 ft 175 kts 290°
2026-04-25 07:25 11.97352 120.28468 3496 ft 176 kts 291°
2026-04-25 07:25 11.97721 120.27285 3434 ft 175 kts 292°
2026-04-25 07:25 11.98112 120.26111 3382 ft 174 kts 293°
2026-04-25 07:25 11.98524 120.24953 3349 ft 172 kts 293°
2026-04-25 07:26 11.98933 120.23809 3357 ft 171 kts 292°
2026-04-25 07:26 11.99336 120.22651 3334 ft 175 kts 293°
2026-04-25 07:26 11.99744 120.21472 3371 ft 175 kts 291°
2026-04-25 07:26 12.00205 120.20325 3443 ft 174 kts 300°
2026-04-25 07:27 12.00886 120.19324 3507 ft 171 kts 317°
2026-04-25 07:27 12.01761 120.18517 3438 ft 169 kts 327°
2026-04-25 07:27 12.02699 120.17802 3395 ft 168 kts 329°
2026-04-25 07:27 12.03609 120.17085 3311 ft 167 kts 328°
2026-04-25 07:28 12.04522 120.16353 3190 ft 166 kts 324°
2026-04-25 07:28 12.05411 120.15610 2992 ft 164 kts 323°
2026-04-25 07:28 12.06300 120.14875 2872 ft 164 kts 324°
2026-04-25 07:28 12.07187 120.14130 2746 ft 164 kts 323°
2026-04-25 07:29 12.08070 120.13410 2615 ft 161 kts 323°
2026-04-25 07:29 12.08891 120.12720 2526 ft 146 kts 323°
2026-04-25 07:29 12.09675 120.12103 2395 ft 140 kts 326°
2026-04-25 07:29 12.10455 120.11531 2185 ft 136 kts 328°
2026-04-25 07:30 12.11222 120.10987 2011 ft 133 kts 327°
2026-04-25 07:30 12.11995 120.10459 1816 ft 134 kts 331°
2026-04-25 07:30 12.12747 120.09900 1593 ft 136 kts 316°
2026-04-25 07:30 12.13298 120.09121 1402 ft 131 kts 300°
2026-04-25 07:31 12.13566 120.08319 1242 ft 115 kts 279°
2026-04-25 07:31 12.13387 120.07544 978 ft 113 kts 229°
2026-04-25 07:31 12.12737 120.07246 805 ft 100 kts 172°
2026-04-25 07:31 12.12233 120.07602 720 ft 89 kts 111°
2026-04-25 07:32 12.12081 120.08225 517 ft 84 kts 96°
2026-04-25 07:32 12.12091 120.08762 388 ft 71 kts 86°
2026-04-25 07:32 12.12124 120.09264 271 ft 71 kts 85°
2026-04-25 07:32 12.12164 120.09750 183 ft 62 kts 83°
2026-04-25 07:33 12.12194 120.10118 182 ft 38 kts 85°
2026-04-25 07:33 12.12221 120.10305 180 ft 16 kts 89°
2026-04-25 07:33 12.12206 120.10287 180 ft 9 kts 271°
2026-04-25 07:33 12.12202 120.10193 181 ft 17 kts 265°
2026-04-25 07:34 12.12188 120.10061 183 ft 18 kts 264°
2026-04-25 07:34 12.12131 120.09985 184 ft 13 kts 219°
2026-04-25 07:34 12.12053 120.09963 188 ft 12 kts 174°
2026-04-25 07:34 12.12035 120.09965 189 ft 0 kts 173°